Regional Weather Roundup
Issued by NWS

Home | Current Version | Previous Version | Text Only | Print | Product List | Glossary Off
Versions: 1 2 3 4 5 6 7 8 9 10 11 12 13 14 15 16 17 18 19 20 21 22 23 24 25 26 27 28 29 30 31 32 33 34 35 36 37 38 39 40 41 42 43 44 45 46 47 48 49 50

000
ASUS43 KFSD 280802
RWRSD

WEATHER ROUNDUP FOR SOUTH DAKOTA
NATIONAL WEATHER SERVICE SIOUX FALLS SD
300 AM CDT SUN MAY 28 2017

NOTE: "FAIR" INDICATES FEW OR NO CLOUDS BELOW 12,000 FEET WITH NO
SIGNIFICANT WEATHER AND/OR OBSTRUCTIONS TO VISIBILITY.


SDZ001>005-009-010-012>017-280900-
NORTHWEST AND NORTH CENTRAL SOUTH DAKOTA

CITY           SKY/WX    TMP DP  RH WIND       PRES   REMARKS
BUFFALO          N/A     52  43  71 W9        29.93S
FAITH            N/A     56  45  66 W17       29.94F
MOBRIDGE       CLEAR     45  40  82 N3        29.85F
$$

SDZ012>016-024>037-041>051-057-063-072>074-280900-
SOUTHWEST AND SOUTH CENTRAL SOUTH DAKOTA

CITY           SKY/WX    TMP DP  RH WIND       PRES   REMARKS
RAPID CTY ARPT CLEAR     49  38  65 W8        30.02F
PIERRE         CLEAR     57  44  62 W16       29.89F
CUSTER         CLEAR     49  34  56 NW6       30.14S
ELLSWORTH AFB  CLEAR     52  40  63 W13       30.01F
PHILIP         CLEAR     52  43  71 W10       29.97S
PINE RIDGE     CLEAR     47  43  86 W6        30.07S
SPEARFISH      MOCLDY    55  39  54 W12       30.07S
WINNER         FAIR      53  44  71 W6        29.95S
$$

SDZ004>011-016>023-039-040-280900-
NORTHEAST SOUTH DAKOTA

CITY           SKY/WX    TMP DP  RH WIND       PRES   REMARKS
ABERDEEN       CLEAR     51  43  74 NW8       29.85S
WATERTOWN      CLEAR     52  46  80 W8        29.83R
BROOKINGS      CLEAR     53  48  83 W8        29.84S
SISSETON         N/A     53  47  79 NW9       29.80S
$$

SDZ017-020-022-023-036>040-048>070-280900-
SOUTHEAST SOUTH DAKOTA

CITY           SKY/WX    TMP DP  RH WIND       PRES   REMARKS
SIOUX FALLS    PTCLDY    56  52  86 W6        29.85F
HURON          CLEAR     49  44  83 W8        29.86S
CHAMBERLAIN    CLEAR     53  46  76 W7        29.92S
MITCHELL       CLEAR     54  47  77 W10       29.88S
YANKTON        CLEAR     56  49  77 W7        29.88S
$$

ABBREVIATIONS USED IN REMARKS
   TC - TEMPERATURE IN CELSIUS
  WCI - WIND CHILL INDEX
   HX - HEAT INDEX
  VSB - VISIBILITY





USA.gov is the U.S. government's official web portal to all federal, state and local government web resources and services.